Location: Unspecified
(22.6800°N, 112.2000°E)
Time: 11:03:14
(UTC+08:00)

Transit 2A - Pass Details

Date: 12 August 2021
Orbit: 595 x 963 km, 66.7° (Epoch: 16 September)

Event Time Altitude Azimuth Distance (km) Brightness Sun altitude
Rises 14:12:26 0° 329° (NNW) 3,454 9.5 66.0°
Reaches altitude 10° 14:14:55 10° 325° (NW) 2,561 9.0 65.4°
Maximum altitude 14:20:43 51° 250° (WSW) 1,157 9.1 64.1°
Drops below altitude 10° 14:26:49 10° 176° (S) 2,683 9.0 62.8°
Sets 14:29:28 0° 171° (S) 3,633 9.5 62.2°
